EHI
12 11 10 11 12 16 22 26 26 24 25 25 21 15 10 9 8 9 12 11 10 9 9 9 9 8 7 6 6 6 5 3 2 1 1 0 1 2 3 3 1 1 1
11 9 8 8 10 16 23 27 28 27 28 29 27 20 14 12 11 11 14 14 12 10 10 11 11 10 8 6 6 6 5 4 3 2 2 1 1 2 3 3 2 1 1
10 9 7 7 9 15 22 26 28 29 31 32 30 24 19 16 15 14 14 14 13 12 11 12 12 12 10 7 6 5 6 5 3 3 2 2 2 2 2 2 1 0 1
11 11 10 9 10 14 17 22 25 28 30 31 30 26 21 18 16 15 13 12 12 13 13 13 13 13 12 10 7 6 6 4 2 1 1 2 2 2 1 1 0 1 2
11 12 12 12 12 12 14 21 26 27 28 31 31 27 21 18 16 14 12 11 11 13 14 14 13 12 12 12 10 8 6 4 2 1 1 1 1 1 1 1 1 1 2
11 12 13 14 14 14 15 20 25 27 27 28 28 25 20 19 18 15 11 10 9 10 13 14 13 11 11 11 11 10 8 5 3 3 3 3 2 3 3 3 2 2 3
12 12 14 15 15 15 16 19 21 23 23 22 22 22 19 19 18 15 11 8 6 8 10 11 11 10 9 9 9 8 7 5 3 3 4 4 3 4 5 5 4 4 5
13 13 14 14 15 15 16 18 18 18 17 16 18 20 18 16 15 13 11 8 6 7 7 9 10 9 8 8 7 6 5 3 1 1 3 3 3 4 5 6 5 4 5
11 12 13 14 14 15 17 19 18 16 14 14 16 18 16 15 14 13 13 10 8 6 6 7 7 7 7 8 8 6 3 1 0 1 1 1 2 3 5 7 4 2 3
9 10 11 13 14 16 18 18 15 14 14 14 15 15 14 14 14 13 13 12 9 7 7 7 6 7 8 9 8 6 3 1 1 1 1 1 1 2 5 6 5 3 3
7 7 9 11 14 16 18 17 14 12 12 14 15 14 13 12 11 10 12 12 10 9 9 8 8 7 8 9 9 6 3 2 2 1 1 1 1 2 5 6 5 4 3
5 5 6 9 12 15 16 15 13 11 10 11 13 12 10 8 7 7 10 11 9 9 9 9 9 7 7 9 9 6 3 3 2 1 1 2 2 3 5 5 4 3 3
4 4 4 7 10 12 13 12 12 11 10 10 11 10 8 6 6 6 8 8 7 6 7 8 7 6 5 7 7 6 4 3 2 1 2 3 4 5 6 5 4 2 3
2 2 3 4 7 8 9 10 10 11 11 11 11 9 8 8 8 8 7 6 4 3 5 6 6 5 5 5 6 6 5 4 3 2 3 5 6 6 7 7 5 4 4
2 2 2 2 4 5 6 7 8 9 11 11 11 9 8 9 9 9 8 6 4 3 4 5 5 5 5 5 6 7 7 6 4 4 5 6 7 6 6 6 6 5 4
2 2 2 2 2 2 4 5 6 8 9 10 9 8 8 9 9 8 7 6 6 5 5 5 5 5 5 4 4 6 8 7 6 6 6 7 7 5 4 3 2 2 2
2 2 3 2 2 2 3 4 6 7 7 7 7 6 6 8 8 7 6 6 6 6 6 6 5 6 5 3 2 3 6 6 7 7 7 8 8 6 4 2 1 1 1
3 2 2 2 3 3 4 5 5 5 5 5 4 4 5 6 7 6 5 5 6 6 5 4 4 5 4 2 0 1 3 6 7 7 8 9 10 7 5 5 4 3 3
6 4 2 3 3 3 4 5 4 3 3 3 3 3 4 5 5 4 4 4 5 5 4 3 3 4 4 2 0 1 4 7 8 9 9 9 9 6 4 6 7 5 5
5 4 2 2 2 2 3 4 4 3 2 3 3 3 3 4 3 4 4 5 5 4 3 4 5 7 6 2 0 2 5 7 7 9 9 7 6 4 3 5 7 6 5
2 1 1 1 1 1 2 3 4 3 3 3 3 3 3 4 4 5 6 6 5 5 5 6 7 8 7 4 1 2 5 6 7 8 8 6 3 1 1 3 4 4 3
1 0 0 0 0 0 2 3 4 3 3 3 3 4 4 5 5 6 7 5 5 5 5 6 6 7 7 5 1 1 2 4 7 7 6 4 1 0 0 0 1 1 1
1 1 1 0 0 0 1 3 3 3 3 2 3 5 6 6 5 6 5 3 3 4 4 4 5 6 6 5 2 0 0 2 5 6 4 2 0 0 0 0 0 0 0
1 1 1 0 0 0 1 2 3 3 3 3 4 6 7 6 5 4 3 1 1 2 2 2 3 5 6 5 4 2 2 2 3 3 2 1 0 0 0 0 0 0 1
0 1 1 0 0 0 0 1 3 3 3 3 4 5 6 6 4 3 2 0 0 1 1 1 2 3 4 4 5 4 4 4 4 3 3 2 1 1 0 0 0 1 2
0 0 0 0 0 0 0 1 2 3 3 3 4 5 6 6 5 3 1 0 0 0 1 1 1 2 2 2 4 4 4 3 3 4 4 4 3 2 1 0 0 1 2
Wind_Speed
4 4 5 6 6 6 6 6 6 6 5 4 4 4 3 3 2 2 2 2 1 1 1 1 2 1 1 1 1 1 2 1 1 1 1 2 2 1 1 0 0 1 1
4 4 5 6 6 6 6 6 6 6 6 5 3 3 3 3 2 1 2 2 1 1 1 1 2 2 2 2 2 2 1 1 1 2 2 2 3 3 1 1 1 0 0
4 4 5 5 6 6 6 5 5 5 5 5 4 4 4 3 3 3 3 2 1 2 1 2 2 2 3 2 2 2 3 2 2 2 3 3 1 0 2 1 1 1 1
4 4 5 5 5 5 5 5 5 5 5 6 5 5 4 3 3 2 2 2 2 2 2 2 2 2 2 2 3 2 3 3 2 2 2 3 3 3 1 2 1 1 1
3 3 3 4 4 4 4 5 5 5 5 5 5 5 4 3 2 3 3 3 3 2 2 2 2 3 2 2 2 2 3 3 3 2 2 2 2 4 4 2 1 1 1
2 2 3 3 3 4 4 5 5 5 5 5 4 5 5 4 3 4 3 3 2 2 2 2 2 2 2 2 3 3 4 3 3 3 3 3 3 3 3 3 3 2 1
2 2 3 3 3 4 4 5 5 5 5 5 4 4 5 5 4 4 3 3 2 2 2 2 2 2 2 3 3 4 4 4 4 4 4 3 3 3 3 3 3 3 1
1 2 2 2 3 4 4 4 5 5 5 5 4 4 4 4 3 3 2 3 2 2 2 3 3 3 3 4 3 4 3 3 4 4 4 4 3 3 3 3 3 4 3
1 1 1 1 2 3 3 3 3 4 4 4 4 4 4 3 2 3 3 3 2 2 2 3 4 3 3 3 4 3 3 3 5 4 4 4 3 3 3 3 3 4 4
2 2 1 0 1 2 3 3 3 3 3 4 4 3 3 3 3 3 3 2 2 2 3 4 4 4 3 3 4 4 3 4 4 3 3 4 4 3 3 3 3 4 4
2 1 1 0 0 1 2 3 3 3 3 3 3 2 3 3 3 3 3 3 4 4 4 4 4 4 4 4 4 5 4 5 5 4 4 5 4 4 3 3 4 3 3
1 1 1 1 1 1 0 1 2 3 2 2 2 2 2 2 3 3 3 3 4 4 5 5 5 4 4 4 5 5 5 5 5 5 5 5 4 4 4 3 4 3 3
1 1 1 1 1 1 1 1 1 1 1 2 2 2 2 2 2 2 2 3 4 4 5 5 5 4 5 5 5 5 5 5 5 5 5 5 4 4 3 4 3 3 3
1 1 1 1 1 1 1 1 1 1 1 2 2 2 2 2 2 2 2 3 3 3 4 4 4 5 5 5 5 5 5 5 5 5 5 5 5 5 4 4 4 3 3
1 1 1 2 1 1 2 1 1 1 1 2 2 2 2 2 2 2 2 2 3 4 3 3 4 5 5 5 5 5 5 5 5 5 5 5 4 3 4 4 3 4 4
1 1 1 2 2 2 2 1 1 1 2 2 2 2 2 2 2 3 3 3 3 3 3 4 4 5 4 1 2 5 5 5 6 5 5 5 5 4 5 5 5 5 5
2 2 2 2 2 2 2 2 2 2 2 2 3 3 3 3 3 3 2 3 3 3 3 4 4 5 3 3 3 4 5 6 5 5 5 5 3 5 5 6 8 8 8
3 2 3 3 3 3 2 2 2 2 2 3 3 3 3 3 3 3 3 3 3 4 4 4 4 4 3 3 4 5 6 6 6 7 6 6 5 4 5 6 6 6 6
3 3 3 3 3 3 2 2 2 2 3 3 3 4 4 4 4 5 5 4 4 4 5 4 4 5 4 4 5 6 6 6 7 7 6 6 6 3 4 6 6 6 4
2 2 3 3 3 3 3 3 3 3 3 4 4 4 4 5 5 5 5 5 5 5 5 5 5 5 5 5 6 7 6 5 6 5 5 5 5 3 4 6 6 6 4
3 3 3 3 3 3 3 4 4 4 4 4 4 4 5 5 5 5 5 5 5 5 5 5 5 5 5 5 7 7 6 5 5 5 4 3 4 5 5 6 6 5 5
3 4 3 4 3 3 4 5 5 5 5 5 5 5 5 5 4 4 5 5 5 5 5 5 5 5 5 5 6 8 8 6 6 5 4 2 3 4 5 5 4 4 5
3 4 4 4 4 4 4 6 6 5 5 5 5 5 6 5 5 5 5 5 5 5 4 4 4 4 4 4 7 9 8 8 6 4 2 2 3 5 5 5 5 5 5
3 3 4 4 4 4 5 6 6 5 5 6 6 6 5 5 4 4 4 4 4 4 4 4 4 4 4 4 3 4 5 6 6 4 3 4 6 6 4 4 5 5 3
3 3 4 5 5 5 5 6 5 5 5 6 6 6 5 5 4 4 4 5 4 3 4 5 4 4 4 2 2 3 3 3 2 2 3 4 4 4 4 4 3 3 3
4 4 5 5 6 5 5 5 5 5 5 5 5 5 4 4 4 4 4 3 4 3 3 4 6 4 3 2 2 2 2 2 2 3 4 4 5 5 4 4 4 4 3
Wind_Direction
175 176 184 186 182 179 176 179 179 173 178 175 180 179 173 173 172 165 148 170 164 146 216 174 146 201 166 180 179 182 173 197 216 231 204 185 176 168 171 147 354 105 117
177 181 188 187 189 185 183 180 178 178 188 178 180 179 172 176 170 150 133 153 158 174 183 217 188 179 185 181 191 211 239 222 223 272 261 225 187 184 173 194 192 240 237
191 181 186 188 188 188 188 186 179 176 184 176 176 169 168 179 174 174 161 157 167 180 199 202 220 203 218 191 211 217 230 248 234 275 295 295 307 143 159 201 199 222 262
201 188 182 181 183 185 180 177 171 171 176 182 188 188 191 189 172 177 161 164 177 188 188 211 221 230 229 206 224 211 242 251 250 228 265 303 332 303 242 192 174 195 231
202 192 188 179 173 172 173 172 166 168 172 186 185 195 202 191 172 171 161 183 175 188 191 209 227 227 231 224 244 232 254 250 261 259 250 249 241 262 274 271 249 221 210
185 178 168 157 155 160 167 165 166 171 175 184 187 197 199 192 186 186 179 193 188 190 187 211 232 234 239 231 236 235 236 255 268 273 265 263 265 258 263 264 256 260 252
167 168 164 156 156 166 169 168 170 177 182 181 187 193 197 196 200 200 190 205 208 204 195 214 225 241 237 238 240 237 249 244 247 255 262 266 276 282 280 275 276 275 261
146 155 159 168 168 167 166 172 179 183 183 182 189 194 199 207 205 206 224 217 226 219 198 214 217 237 245 242 237 239 238 243 250 256 265 264 262 270 266 272 279 272 261
89 113 144 169 172 169 168 179 189 189 187 186 187 194 203 216 213 203 220 223 223 223 205 221 227 227 239 245 243 245 243 244 248 247 244 255 260 259 261 262 266 275 278
64 44 43 174 198 185 169 179 196 203 196 192 194 190 199 208 211 218 211 224 226 235 230 232 237 239 237 243 249 243 238 240 244 252 257 260 261 263 258 254 254 261 275
88 77 60 74 190 197 180 179 190 200 201 205 200 196 201 202 206 216 218 217 218 219 231 241 238 237 238 239 245 256 253 248 249 253 248 249 265 268 265 252 253 255 264
89 86 81 83 68 57 29 200 211 205 202 198 190 195 200 205 214 217 222 220 223 224 224 229 235 239 237 239 243 250 252 251 249 252 256 254 246 250 263 262 259 253 257
59 67 63 52 33 30 8 301 232 226 208 188 187 186 200 210 218 236 243 240 236 232 231 227 229 237 240 240 243 247 252 253 253 255 254 252 249 250 251 254 259 257 246
31 37 35 10 355 6 340 314 256 236 236 215 204 206 220 227 233 239 248 250 244 237 235 232 231 238 240 241 241 240 247 253 254 254 253 251 247 248 250 245 245 254 256
350 14 11 354 348 352 336 333 308 290 272 257 239 231 228 225 233 229 233 243 246 239 234 234 236 239 237 239 244 245 242 244 247 248 252 253 254 271 267 272 265 260 260
356 11 11 355 351 339 326 326 308 290 269 266 263 248 233 221 228 233 233 237 246 253 245 243 246 243 238 180 246 264 254 246 245 249 255 251 230 227 232 250 265 273 263
341 341 339 336 333 325 310 307 311 300 276 266 265 257 239 225 229 237 240 248 252 254 252 248 252 252 228 179 213 249 259 250 250 250 252 261 258 240 244 230 228 235 240
322 318 320 329 326 319 312 303 300 288 278 273 265 257 250 238 234 244 246 247 246 246 250 248 246 249 234 197 214 233 244 250 249 248 248 254 259 256 263 258 249 244 234
319 312 306 308 315 318 311 289 282 282 278 276 274 266 258 250 241 241 245 245 248 249 248 246 245 243 232 203 214 234 244 242 245 247 246 249 250 236 258 257 258 260 256
319 308 306 308 311 309 301 291 289 287 285 283 281 278 269 258 251 250 250 249 248 251 253 251 246 243 241 207 207 228 246 243 245 243 243 236 246 226 231 252 262 262 263
317 313 307 305 308 305 296 287 286 284 285 284 279 272 267 260 254 254 252 251 251 253 255 254 246 239 238 213 207 218 250 253 252 251 246 228 183 205 221 247 259 268 275
315 314 304 302 303 298 286 280 281 283 282 280 274 270 268 267 263 255 253 253 252 246 244 244 247 238 226 225 211 209 229 263 263 259 256 234 161 196 223 240 254 257 256
311 307 298 295 297 293 284 280 282 284 281 276 272 269 267 261 265 261 258 255 250 252 247 246 247 244 235 211 203 208 218 229 247 266 282 242 201 211 220 222 225 229 235
308 309 308 301 301 300 293 287 286 283 279 274 271 269 267 260 260 263 263 263 264 263 261 256 255 249 239 237 221 218 214 211 221 234 224 209 211 223 224 209 210 225 239
307 307 304 304 304 303 299 294 289 282 276 272 269 271 264 258 254 249 258 259 261 268 275 277 270 262 257 263 296 265 252 259 265 245 226 221 213 212 211 214 217 224 223
304 300 298 300 307 307 306 305 296 281 275 272 273 270 262 252 248 242 236 217 235 219 234 269 286 281 285 289 275 275 266 246 222 232 221 219 222 221 214 215 212 216 223